Previsão horária em A dos Cunhados

Hoje, 18 Abril, Domingo

Tempo Temperatura Precipitação Vento Pressão Humidade
00:00 +12°C° 0 mm 1 m/s 755 mmHg 77%
01:00 +12°C° 0 mm 1 m/s 755 mmHg 76%
02:00 +12°C° 0 mm 1 m/s 755 mmHg 74%
03:00 +12°C° 0 mm 1 m/s 755 mmHg 73%
04:00 +12°C° 0 mm 1 m/s 755 mmHg 71%
05:00 +12°C° 0 mm 1 m/s 755 mmHg 68%
06:00 +14°C° 0 mm 1 m/s 755 mmHg 63%
07:00 +15°C° 0 mm 1 m/s 756 mmHg 58%
08:00 +17°C° 0 mm 2 m/s 756 mmHg 53%
09:00 +19°C° 0 mm 2 m/s 756 mmHg 49%
10:00 +20°C° 0 mm 2 m/s 756 mmHg 46%
11:00 +23°C° 0 mm 2 m/s 756 mmHg 43%
12:00 +23°C° 0 mm 2 m/s 756 mmHg 44%
13:00 +22°C° 0 mm 3 m/s 756 mmHg 45%
14:00 +22°C° 0 mm 3 m/s 756 mmHg 46%
15:00 +20°C° 0 mm 3 m/s 756 mmHg 52%
16:00 +19°C° 0 mm 3 m/s 756 mmHg 59%
17:00 +17°C° 0 mm 3 m/s 756 mmHg 65%
18:00 +16°C° 0 mm 3 m/s 756 mmHg 70%
19:00 +15°C° 0 mm 2 m/s 756 mmHg 75%
20:00 +13°C° 0 mm 2 m/s 757 mmHg 81%
21:00 +13°C° 0 mm 2 m/s 756 mmHg 82%
22:00 +13°C° 0 mm 2 m/s 756 mmHg 83%
23:00 +13°C° 0 mm 2 m/s 756 mmHg 84%

Amanhã, 19 Abril, Segunda-feira

Tempo Temperatura Precipitação Vento Pressão Humidade
00:00 +12°C° 0 mm 2 m/s 756 mmHg 85%
01:00 +12°C° 0 mm 2 m/s 755 mmHg 86%
02:00 +12°C° 0 mm 2 m/s 755 mmHg 87%
03:00 +12°C° 0 mm 2 m/s 755 mmHg 88%
04:00 +12°C° 0 mm 2 m/s 755 mmHg 88%
05:00 +10°C° 0 mm 2 m/s 755 mmHg 89%
06:00 +13°C° 0 mm 2 m/s 755 mmHg 80%
07:00 +15°C° 0 mm 2 m/s 755 mmHg 71%
08:00 +17°C° 0 mm 2 m/s 756 mmHg 62%
09:00 +18°C° 0 mm 2 m/s 755 mmHg 57%
10:00 +19°C° 0 mm 3 m/s 755 mmHg 51%
11:00 +20°C° 0 mm 3 m/s 755 mmHg 46%
12:00 +20°C° 0 mm 3 m/s 755 mmHg 47%
13:00 +20°C° 0 mm 4 m/s 755 mmHg 49%
14:00 +20°C° 0 mm 5 m/s 755 mmHg 50%
15:00 +19°C° 0 mm 4 m/s 755 mmHg 56%
16:00 +18°C° 0 mm 4 m/s 755 mmHg 62%
17:00 +17°C° 0 mm 4 m/s 755 mmHg 68%
18:00 +15°C° 0 mm 4 m/s 755 mmHg 76%
19:00 +13°C° 0 mm 3 m/s 755 mmHg 84%
20:00 +12°C° 0 mm 3 m/s 755 mmHg 92%
21:00 +12°C° 0 mm 3 m/s 755 mmHg 93%
22:00 +12°C° 0 mm 3 m/s 755 mmHg 93%
23:00 +12°C° 0 mm 3 m/s 754 mmHg 94%

Depois de amanhã, 20 Abril, Terça-feira

Tempo Temperatura Precipitação Vento Pressão Humidade
00:00 +12°C° 0 mm 3 m/s 754 mmHg 95%
01:00 +12°C° 0 mm 3 m/s 754 mmHg 95%
02:00 +12°C° 0 mm 3 m/s 754 mmHg 96%
03:00 +12°C° 0 mm 3 m/s 754 mmHg 94%
04:00 +12°C° 0 mm 3 m/s 754 mmHg 91%
05:00 +13°C° 0 mm 3 m/s 754 mmHg 89%
06:00 +14°C° 0.1 mm 4 m/s 754 mmHg 85%
07:00 +15°C° 0.1 mm 4 m/s 754 mmHg 80%
08:00 +17°C° 0.1 mm 4 m/s 754 mmHg 76%
09:00 +17°C° 0.1 mm 4 m/s 754 mmHg 73%
10:00 +18°C° 0.1 mm 4 m/s 754 mmHg 71%
11:00 +17°C° 0.1 mm 5 m/s 754 mmHg 68%
12:00 +19°C° 0 mm 5 m/s 754 mmHg 66%
13:00 +19°C° 0 mm 5 m/s 753 mmHg 64%
14:00 +19°C° 0 mm 5 m/s 753 mmHg 62%
15:00 +19°C° 0 mm 5 m/s 753 mmHg 66%
16:00 +17°C° 0 mm 5 m/s 753 mmHg 71%
17:00 +16°C° 0 mm 5 m/s 753 mmHg 76%
18:00 +15°C° 0 mm 5 m/s 753 mmHg 82%
19:00 +13°C° 0 mm 4 m/s 753 mmHg 88%
20:00 +12°C° 0 mm 3 m/s 753 mmHg 94%
21:00 +12°C° 0 mm 3 m/s 753 mmHg 94%
22:00 +12°C° 0 mm 3 m/s 753 mmHg 94%
23:00 +12°C° 0 mm 3 m/s 753 mmHg 94%

21 Abril, Quarta-feira

Tempo Temperatura Precipitação Vento Pressão Humidade
00:00 +12°C° 0 mm 3 m/s 752 mmHg 94%
01:00 +12°C° 0 mm 3 m/s 752 mmHg 94%
02:00 +12°C° 0 mm 3 m/s 752 mmHg 94%
03:00 +12°C° 0 mm 3 m/s 752 mmHg 94%
04:00 +13°C° 0 mm 2 m/s 752 mmHg 93%
05:00 +14°C° 0 mm 2 m/s 751 mmHg 93%
06:00 +14°C° 0 mm 2 m/s 752 mmHg 90%
07:00 +15°C° 0 mm 2 m/s 752 mmHg 86%
08:00 +15°C° 0 mm 2 m/s 752 mmHg 83%
09:00 +17°C° 0 mm 3 m/s 752 mmHg 75%
10:00 +18°C° 0 mm 3 m/s 752 mmHg 67%
11:00 +19°C° 0 mm 4 m/s 752 mmHg 59%
12:00 +19°C° 0 mm 4 m/s 751 mmHg 61%
13:00 +19°C° 0 mm 5 m/s 751 mmHg 64%
14:00 +19°C° 0 mm 5 m/s 751 mmHg 66%
15:00 +17°C° 0.1 mm 5 m/s 751 mmHg 72%
16:00 +16°C° 0.1 mm 5 m/s 751 mmHg 77%
17:00 +16°C° 0.1 mm 5 m/s 751 mmHg 83%
18:00 +15°C° 0.1 mm 4 m/s 751 mmHg 87%
19:00 +14°C° 0.1 mm 4 m/s 752 mmHg 91%
20:00 +13°C° 0.1 mm 3 m/s 752 mmHg 95%
21:00 +13°C° 0.1 mm 3 m/s 752 mmHg 96%
22:00 +13°C° 0.1 mm 3 m/s 752 mmHg 96%
23:00 +13°C° 0.1 mm 3 m/s 751 mmHg 96%

22 Abril, Quinta-feira

Tempo Temperatura Precipitação Vento Pressão Humidade
00:00 +13°C° 0.1 mm 3 m/s 751 mmHg 96%
01:00 +15°C° 0.1 mm 2 m/s 751 mmHg 96%
02:00 +15°C° 0.1 mm 2 m/s 751 mmHg 96%
03:00 +15°C° 0.1 mm 2 m/s 751 mmHg 97%
04:00 +14°C° 0.1 mm 2 m/s 751 mmHg 97%
05:00 +14°C° 0.1 mm 2 m/s 751 mmHg 97%
06:00 +16°C° 0 mm 3 m/s 751 mmHg 92%
07:00 +17°C° 0 mm 3 m/s 751 mmHg 86%
08:00 +18°C° 0 mm 4 m/s 751 mmHg 81%
09:00 +17°C° 0.2 mm 5 m/s 751 mmHg 81%
10:00 +17°C° 0.2 mm 5 m/s 751 mmHg 80%
11:00 +17°C° 0.2 mm 5 m/s 750 mmHg 80%
12:00 +17°C° 0.3 mm 6 m/s 750 mmHg 82%
13:00 +17°C° 0.3 mm 6 m/s 750 mmHg 85%
14:00 +16°C° 0.3 mm 6 m/s 749 mmHg 87%
15:00 +16°C° 0.2 mm 7 m/s 749 mmHg 86%
16:00 +16°C° 0.2 mm 7 m/s 748 mmHg 86%
17:00 +17°C° 0.2 mm 8 m/s 748 mmHg 85%
18:00 +16°C° 2.8 mm 8 m/s 748 mmHg 89%
19:00 +16°C° 2.8 mm 8 m/s 748 mmHg 93%
20:00 +16°C° 2.8 mm 7 m/s 748 mmHg 96%
21:00 +15°C° 2.1 mm 7 m/s 748 mmHg 96%
22:00 +15°C° 2.1 mm 6 m/s 748 mmHg 95%
23:00 +15°C° 2.1 mm 5 m/s 748 mmHg 94%

23 Abril, Sexta-feira

Tempo Temperatura Precipitação Vento Pressão Humidade
00:00 +15°C° 0.3 mm 5 m/s 748 mmHg 94%
01:00 +14°C° 0.3 mm 4 m/s 748 mmHg 94%
02:00 +14°C° 0.3 mm 4 m/s 748 mmHg 94%
03:00 +14°C° 0.1 mm 4 m/s 748 mmHg 95%
04:00 +13°C° 0.1 mm 4 m/s 748 mmHg 95%
05:00 +13°C° 0.1 mm 4 m/s 748 mmHg 96%
06:00 +14°C° 0 mm 4 m/s 748 mmHg 89%
07:00 +15°C° 0 mm 4 m/s 749 mmHg 82%
08:00 +18°C° 0 mm 4 m/s 749 mmHg 75%
09:00 +17°C° 0 mm 5 m/s 750 mmHg 69%
10:00 +19°C° 0 mm 5 m/s 750 mmHg 63%
11:00 +20°C° 0 mm 5 m/s 750 mmHg 56%
12:00 +20°C° 0 mm 6 m/s 750 mmHg 58%
13:00 +20°C° 0 mm 6 m/s 749 mmHg 59%
14:00 +20°C° 0 mm 6 m/s 749 mmHg 61%
15:00 +19°C° 0 mm 6 m/s 749 mmHg 64%
16:00 +17°C° 0 mm 5 m/s 750 mmHg 67%
17:00 +16°C° 0 mm 5 m/s 750 mmHg 70%
18:00 +15°C° 0.1 mm 5 m/s 750 mmHg 77%
19:00 +14°C° 0.1 mm 4 m/s 750 mmHg 84%
20:00 +13°C° 0.1 mm 4 m/s 751 mmHg 91%
21:00 +12°C° 0 mm 3 m/s 750 mmHg 92%
22:00 +12°C° 0 mm 3 m/s 750 mmHg 92%
23:00 +12°C° 0 mm 3 m/s 750 mmHg 93%
Mostrar mais